Погода в Витебске

Поиск расширенной информации на нашем сайте:

Полезная информация:

Новости сайта



02.01.2020
Опубликован Долгосрочный прогноз погоды по городам России и ближнего зарубежья на январь 2020 года.
Карты: Прогноз на январь и февраль 2020 года, Сравнение прогнозируемой аномалии приземной температуры воздуха на январь 2020 года по разным моделям.




Погода в Витебске - сегодня

Время (UTC), дата Ветер
(°,м/с) 
Видим.   Явления Облачность Т
(°С)
Тd
(°С)
f(%) Тe
(°С)
Pmin
(гПа)
dP
(гПа)
Po
(мм)
O2
(г/м3)
Тmin Tmax R s Состояние
почвы
15 16.04.21 050 (СВ) 3{12}  35000 м  в посл. час ливневой дождь  9/5 600 м средняя, верхняя 
[Sc|Ac trans|Cs]
+12 +7.7 75 +12  1016.6  1.1  747  287           
18 16.04.21 060 (СВ) 1{12}  24000 м  {ливн. осадки}  5/5 1000 м 
[Sc diur, vesp]
+10.1 +5.7 74 +11  1017.8  1.1  747  290    +17.2  0.5     
21 16.04.21 060 (СВ) 8000 м  слаб. ливневой дождь  10/10 1200 м кучево-дожд. 
[Cb cap]
+9.2 +7.6 90 +9  1018.9  748  290           
00 17.04.21 060 (СВ) 13000 м  {ливн. осадки}  9/6 1470 м средняя 
[Sc|Ac trans]
+8.2 +7.8 97 +9  1019  748  291           
03 17.04.21 050 (СВ) 27000 м    10/6 1140 м средняя, верхняя 
[Sc|Ac trans|Cs]
+6.5 +6.1 97 +7  1019.2  748  293         
06 17.04.21 040 (СВ) 35000 м    8/0 средняя, верхняя 
[Ac trans|Ci sp]
+10.2 +5.2 71 +10  1019.5  0.6  749  290  +6.5       
09 17.04.21 070 (В) 29000 м    3/0 средняя, верхняя 
[Ac trans|Cc]
+14.3 +5.1 54 +14  1019.4  0.3  749  286           
12 17.04.21 180 (Ю) 2{10}  23000 м    8/6 870 м верхняя 
[Sc|Ci fib]
+16.2 +5.8 50 +17  1019.2  -0.1  749  284           
15 17.04.21 050 (СВ) 35000 м    8/8 870 м 
[Sc diur, vesp]
+17.3 +3.6 40 +18  1018.6  -0.5  748  283           
18 17.04.21 040 (СВ) 19000 м    ясно 
+12.7 +4.4 57 +14  1019  748  287    +17.6       
21 17.04.21 030 (СВ) 28000 м    ясно 
+9.9 +3 62 +11  1019.3  0.1  749  291           
00 18.04.21 050 (СВ) 30000 м    ясно 
+8.1 +1.3 62 +8  1019.2  -0.2  748  293           
03 18.04.21 040 (СВ) 35000 м    8/8 800 м 
[Sc]
+7.5 -0.7 56 +7  1019.8  0.5  749  294           
06 18.04.21 040 (СВ) 35000 м    3/0 средняя 
[Ac trans]
+10.4 -2.3 41 +10  1019.7  0.1  749  291  +7.2         
09 18.04.21 040 (СВ) 5{11}  35000 м    ясно 
+15.1 -2.4 30 +15  1019.3  749  286           
12 18.04.21 050 (СВ) 4{12}  35000 м    ясно 
+17.2 -3 25 +17  1018.9  -0.2  749  284           
15 18.04.21 040 (СВ) 4{10}  35000 м    ясно 
+17 -4.3 23 +17  1018.8  -0.1  749  284           
18 18.04.21 060 (СВ) 35000 м    ясно 
+11.9 -3.1 35 +13  1020.2  749  290    +17.9       
21 18.04.21 180 (Ю) 26000 м    ясно 
+9.1 +3.8 69 +9  1021.6  1.1  750  292           
00 19.04.21 070 (В) 21000 м    ясно 
+5.9 +3.1 82 +7  1022.3  0.4  750  296           
03 19.04.21 050 (СВ) 18000 м    3/0 средняя 
[Ac trans]
+3.8 +2 88 +5  1022.7  0.2  751  298           
06 19.04.21 040 (СВ) 18000 м    6/0 средняя 
[Ac trans]
+7.2 +2.1 70 +8  1022.6  0.2  751  294  +2.5         
09 19.04.21 060 (СВ) 24000 м    5/3 1000 м средняя 
[Cu hum|Ac trans]
+14 -0.5 37 +14  1021.2  -0.8  750  288           
12 19.04.21 060 (СВ) 4{11}  35000 м    8/5 1000 м верхняя 
[Cu med, cong|Cs]
+15.6 -1.5 31 +16  1020.1  -0.9  749  286           
15 19.04.21 030 (СВ) 3{10}  35000 м    9/3 1000 м средняя, верхняя 
[Sc diur, vesp|Ac As|Cs]
+15 +0 36 +15  1019.5  -0.7  749  286           
Время (UTC), дата Ветер
(°,м/с) 
Видим.   Явления Облачность Т
(°С)
Тd
(°С)
f(%) Тe
(°С)
Pmin
(гПа)
dP
(гПа)
Po
(мм)
O2
(г/м3)
Тmin Tmax R s Состояние
почвы

Для получения пояснительной информации подведите курсор к названию столбца.

ПОГОДА в Витебске - архив

Всё, что Вы хотите узнать о погоде в Витебске - удобно и подробно!

Выберите нужную дату (начиная с 1 января 2019* года) и нажмите кнопку "Найти".
Будут отображены архивные сводки погоды по пункту Витебск, начиная с указанной даты.


Отображать данные в формате CSV (для использования в таблицах Excel)


Внимание! Наш архив погоды предназначен исключительно для личного некоммерческого использования в познавательных целях. Если Вам необходимы официальные справки о состоянии погоды (для производственных, юридических, коммерческих и т.п. целей), обращайтесь в органы Росгидромета.

*Примечание: данная дата относится к архиву по метеостанциям СССР (Россия, СНГ, Балтия).
Архив по метеостанциям Зарубежной Европы и Азии (кроме Китая) хранится 10 дней, по другим регионам земного шара (Китай, Африка, Америка, Австралия, Океания) - 1 день.

Витебск - район местоположения метеостанции


Название, широта, долгота, высота метеостанции:
Витебск (город) 55.1°ш. 30.3°д. 170 м над ур. моря [Беларусь]

Дополнительная информация

В oтличие oт бoльшинства пoгoдных сайтoв мы публикуем пoдрoбную метеoинфoрмацию в детальнoм прoфессиoнальнoм фoрмате.

Характеристики температуры и влажнoсти вoздуха измеряются на высoте 2 м в тени вдали oт зданий и деревьев.
Скoрoсть ветра измеряется на высoте 10 м (на урoвне рoста челoвека скoрoсть ветра ниже в 1.5-2 раза). Если метеoстанция нахoдится в гoрoде или в лесу, тo скoрoсть ветра занижена на 2-4 м/с пo сравнению с oткрытым местoм. Скoрoсть ветра над акватoриями крупных рек и oзёр, а также на вершинах хoлмoв на 2-5 м/с выше, чем в oбычных услoвиях.
Атмoсфернoе давление в разных тoчках местнoсти мoжет значительнo oтличаться oт давления на метеoстанции, в зависимoсти oт услoвий рельефа (при пoдъёме на 10 м давление пoнижается примернo на 1 мм рт.ст.).